WWA215 KMSP-KMDW

Flight info

Callsign WWA215
Flight time 1h 1m
Altitude 35000
Route RST1 RST OHHMY ENDEE8
Aircraft B737/M-SDE2E3FGHIRWXY/LB1

Departure

Time 2026-05-06 11:11
Airport Minneapolis–Saint Paul International Airport / Wold–Chamberlain Field (KMSP)

Arrival

Time 2026-05-06 12:13
Airport Chicago Midway International Airport (KMDW)
Time Latitude Longitude Altitude Speed Heading
2026-05-06 10:59 44.88522 -93.21246 849 ft 0 kts 43°
2026-05-06 11:00 44.88522 -93.21245 849 ft 0 kts 43°
2026-05-06 11:00 44.88523 -93.21245 849 ft 0 kts 43°
2026-05-06 11:01 44.88523 -93.21244 849 ft 0 kts 43°
2026-05-06 11:01 44.88524 -93.21243 849 ft 0 kts 43°
2026-05-06 11:02 44.88510 -93.21261 849 ft 7 kts 43°
2026-05-06 11:02 44.88504 -93.21269 849 ft 0 kts 43°
2026-05-06 11:02 44.88505 -93.21268 849 ft 2 kts 43°
2026-05-06 11:03 44.88493 -93.21284 849 ft 3 kts 43°
2026-05-06 11:03 44.88478 -93.21302 849 ft 3 kts 43°
2026-05-06 11:03 44.88463 -93.21322 849 ft 3 kts 43°
2026-05-06 11:04 44.88451 -93.21338 849 ft 0 kts 43°
2026-05-06 11:05 44.88451 -93.21337 849 ft 0 kts 43°
2026-05-06 11:06 44.88452 -93.21337 849 ft 0 kts 43°
2026-05-06 11:06 44.88471 -93.21339 849 ft 7 kts 321°
2026-05-06 11:06 44.88479 -93.21429 849 ft 13 kts 273°
2026-05-06 11:06 44.88486 -93.21588 849 ft 19 kts 273°
2026-05-06 11:07 44.88450 -93.21723 849 ft 14 kts 227°
2026-05-06 11:07 44.88381 -93.21824 849 ft 15 kts 225°
2026-05-06 11:07 44.88307 -93.21928 849 ft 15 kts 222°
2026-05-06 11:07 44.88249 -93.21914 849 ft 9 kts 97°
2026-05-06 11:08 44.88235 -93.21823 849 ft 10 kts 116°
2026-05-06 11:08 44.88189 -93.21699 849 ft 19 kts 118°
2026-05-06 11:08 44.88107 -93.21498 849 ft 28 kts 122°
2026-05-06 11:08 44.87992 -93.21247 849 ft 33 kts 123°
2026-05-06 11:09 44.87860 -93.20955 849 ft 37 kts 123°
2026-05-06 11:09 44.87731 -93.20640 849 ft 36 kts 111°
2026-05-06 11:09 44.87615 -93.20343 849 ft 36 kts 121°
2026-05-06 11:09 44.87501 -93.20087 849 ft 22 kts 125°
2026-05-06 11:10 44.87419 -93.20101 849 ft 11 kts 213°
2026-05-06 11:10 44.87369 -93.20186 849 ft 11 kts 300°
2026-05-06 11:10 44.87409 -93.20256 849 ft 9 kts 301°
2026-05-06 11:10 44.87499 -93.20467 849 ft 49 kts 300°
2026-05-06 11:11 44.87775 -93.21120 849 ft 104 kts 304°
2026-05-06 11:11 44.88234 -93.22181 864 ft 147 kts 300°
2026-05-06 11:11 44.88774 -93.23462 1345 ft 149 kts 300°
2026-05-06 11:11 44.89260 -93.24686 2150 ft 144 kts 295°
2026-05-06 11:12 44.89375 -93.25997 2650 ft 152 kts 268°
2026-05-06 11:12 44.88794 -93.27261 3157 ft 163 kts 228°
2026-05-06 11:12 44.87697 -93.27722 3670 ft 174 kts 189°
2026-05-06 11:12 44.86480 -93.27441 4153 ft 183 kts 171°
2026-05-06 11:13 44.85180 -93.27017 4522 ft 202 kts 168°
2026-05-06 11:13 44.83756 -93.26474 4896 ft 223 kts 166°
2026-05-06 11:13 44.82195 -93.25845 5292 ft 245 kts 165°
2026-05-06 11:13 44.80485 -93.25150 5684 ft 267 kts 165°
2026-05-06 11:14 44.78651 -93.24408 6277 ft 279 kts 165°
2026-05-06 11:14 44.76787 -93.23656 7155 ft 281 kts 165°
2026-05-06 11:14 44.74899 -93.22899 7987 ft 285 kts 165°
2026-05-06 11:14 44.72982 -93.22132 8822 ft 289 kts 164°
2026-05-06 11:15 44.71042 -93.21360 9652 ft 293 kts 164°
2026-05-06 11:15 44.69073 -93.20583 10478 ft 297 kts 164°
2026-05-06 11:15 44.67063 -93.19789 11137 ft 309 kts 166°
2026-05-06 11:15 44.64929 -93.18915 11485 ft 331 kts 164°
2026-05-06 11:16 44.62714 -93.17718 11848 ft 352 kts 158°
2026-05-06 11:16 44.60519 -93.16319 12585 ft 356 kts 156°
2026-05-06 11:16 44.58276 -93.14805 13395 ft 362 kts 155°
2026-05-06 11:16 44.55964 -93.13210 14206 ft 367 kts 155°
2026-05-06 11:17 44.53715 -93.11662 15035 ft 370 kts 156°
2026-05-06 11:17 44.51342 -93.10018 15779 ft 378 kts 156°
2026-05-06 11:17 44.48979 -93.08368 16523 ft 384 kts 155°
2026-05-06 11:17 44.46574 -93.06688 17239 ft 390 kts 155°
2026-05-06 11:18 44.44130 -93.04984 17927 ft 397 kts 155°
2026-05-06 11:18 44.41660 -93.03228 18635 ft 402 kts 155°
2026-05-06 11:18 44.39156 -93.01470 19468 ft 400 kts 158°
2026-05-06 11:18 44.36665 -92.99757 20286 ft 404 kts 158°
2026-05-06 11:19 44.34121 -92.98008 20805 ft 412 kts 158°
2026-05-06 11:19 44.31554 -92.96233 21483 ft 415 kts 158°
2026-05-06 11:19 44.29011 -92.94478 22100 ft 418 kts 159°
2026-05-06 11:19 44.26345 -92.92641 22752 ft 422 kts 159°
2026-05-06 11:20 44.23703 -92.90822 23292 ft 427 kts 159°
2026-05-06 11:20 44.21035 -92.88981 23856 ft 431 kts 159°
2026-05-06 11:20 44.18350 -92.87124 24519 ft 430 kts 159°
2026-05-06 11:20 44.15676 -92.85277 25163 ft 433 kts 160°
2026-05-06 11:21 44.12956 -92.83406 25539 ft 440 kts 160°
2026-05-06 11:21 44.10200 -92.81507 25913 ft 448 kts 160°
2026-05-06 11:21 44.07391 -92.79571 26253 ft 455 kts 161°
2026-05-06 11:21 44.04615 -92.77657 26796 ft 456 kts 162°
2026-05-06 11:22 44.01718 -92.75661 27315 ft 459 kts 162°
2026-05-06 11:22 43.98859 -92.73692 27857 ft 459 kts 162°
2026-05-06 11:22 43.96007 -92.71724 28412 ft 460 kts 163°
2026-05-06 11:22 43.93153 -92.69756 29049 ft 457 kts 164°
2026-05-06 11:23 43.90321 -92.67806 29593 ft 457 kts 165°
2026-05-06 11:23 43.87476 -92.65864 30101 ft 457 kts 165°
2026-05-06 11:23 43.84628 -92.63937 30596 ft 457 kts 166°
2026-05-06 11:23 43.81820 -92.62042 31521 ft 442 kts 166°
2026-05-06 11:24 43.79123 -92.60004 32244 ft 446 kts 160°
2026-05-06 11:24 43.76502 -92.57677 32607 ft 451 kts 158°
2026-05-06 11:24 43.73936 -92.55317 33440 ft 439 kts 158°
2026-05-06 11:24 43.71386 -92.52989 33710 ft 444 kts 158°
2026-05-06 11:25 43.68811 -92.50624 34011 ft 447 kts 157°
2026-05-06 11:25 43.66233 -92.48217 34222 ft 451 kts 157°
2026-05-06 11:25 43.63614 -92.45813 34483 ft 453 kts 157°
2026-05-06 11:25 43.60985 -92.43408 34716 ft 457 kts 157°
2026-05-06 11:26 43.58330 -92.40974 34909 ft 461 kts 157°
2026-05-06 11:26 43.55658 -92.38515 35029 ft 468 kts 156°
2026-05-06 11:26 43.52955 -92.35962 35044 ft 476 kts 155°
2026-05-06 11:27 43.47427 -92.30793 35038 ft 484 kts 156°
2026-05-06 11:27 43.41907 -92.25614 35035 ft 479 kts 156°
2026-05-06 11:28 43.36404 -92.20465 35035 ft 479 kts 156°
2026-05-06 11:28 43.30893 -92.15372 35034 ft 480 kts 156°
2026-05-06 11:29 43.25379 -92.10232 35033 ft 479 kts 156°
2026-05-06 11:29 43.19884 -92.05133 35030 ft 478 kts 156°
2026-05-06 11:30 43.14377 -92.00066 35029 ft 479 kts 156°
2026-05-06 11:30 43.08864 -91.94965 35029 ft 481 kts 156°
2026-05-06 11:31 43.03297 -91.89846 35031 ft 489 kts 156°
2026-05-06 11:31 42.97572 -91.84573 35030 ft 506 kts 154°
2026-05-06 11:32 42.91686 -91.79113 35036 ft 521 kts 153°
2026-05-06 11:32 42.86022 -91.72819 35040 ft 529 kts 146°
2026-05-06 11:33 42.80423 -91.66296 35040 ft 530 kts 145°
2026-05-06 11:33 42.74905 -91.59684 35040 ft 527 kts 146°
2026-05-06 11:34 42.69454 -91.53143 35042 ft 519 kts 147°
2026-05-06 11:34 42.64067 -91.46719 35036 ft 515 kts 147°
2026-05-06 11:34 42.61390 -91.43531 34804 ft 511 kts 147°
2026-05-06 11:35 42.58720 -91.40353 34460 ft 513 kts 148°
2026-05-06 11:35 42.56069 -91.37185 33985 ft 504 kts 148°
2026-05-06 11:35 42.53467 -91.34082 33509 ft 495 kts 148°
2026-05-06 11:35 42.50914 -91.31038 33033 ft 486 kts 149°
2026-05-06 11:36 42.48389 -91.28022 32558 ft 488 kts 148°
2026-05-06 11:36 42.45838 -91.24976 32082 ft 491 kts 148°
2026-05-06 11:36 42.43285 -91.21929 31608 ft 492 kts 148°
2026-05-06 11:36 42.40720 -91.18863 31131 ft 493 kts 148°
2026-05-06 11:37 42.38160 -91.15807 30655 ft 491 kts 148°
2026-05-06 11:37 42.35618 -91.12773 30180 ft 489 kts 148°
2026-05-06 11:37 42.33062 -91.09742 29704 ft 491 kts 148°
2026-05-06 11:37 42.30500 -91.06705 29228 ft 491 kts 148°
2026-05-06 11:38 42.27928 -91.03675 28752 ft 493 kts 148°
2026-05-06 11:38 42.25351 -91.00633 28276 ft 494 kts 148°
2026-05-06 11:38 42.22772 -90.97591 27801 ft 495 kts 148°
2026-05-06 11:38 42.20182 -90.94532 27324 ft 498 kts 148°
2026-05-06 11:39 42.17560 -90.91479 26849 ft 499 kts 148°
2026-05-06 11:39 42.14959 -90.88413 26372 ft 497 kts 148°
2026-05-06 11:39 42.12356 -90.85356 25897 ft 499 kts 148°
2026-05-06 11:39 42.09755 -90.82307 25420 ft 495 kts 148°
2026-05-06 11:40 42.07166 -90.79270 24944 ft 495 kts 148°
2026-05-06 11:40 42.04583 -90.76243 24467 ft 491 kts 148°
2026-05-06 11:40 42.02013 -90.73267 23986 ft 492 kts 144°
2026-05-06 11:40 41.99380 -90.70203 23512 ft 507 kts 143°
2026-05-06 11:41 41.96751 -90.67130 23034 ft 496 kts 142°
2026-05-06 11:41 41.94184 -90.64143 22557 ft 484 kts 142°
2026-05-06 11:41 41.91682 -90.61223 22081 ft 472 kts 143°
2026-05-06 11:41 41.89235 -90.58369 21604 ft 462 kts 143°
2026-05-06 11:42 41.86842 -90.55587 21170 ft 451 kts 144°
2026-05-06 11:42 41.84520 -90.52890 21036 ft 434 kts 144°
2026-05-06 11:42 41.82285 -90.50292 21006 ft 421 kts 144°
2026-05-06 11:42 41.80046 -90.47725 21007 ft 430 kts 144°
2026-05-06 11:43 41.77750 -90.45134 21006 ft 434 kts 144°
2026-05-06 11:43 41.75465 -90.42513 21005 ft 434 kts 143°
2026-05-06 11:43 41.73180 -90.39892 21006 ft 433 kts 143°
2026-05-06 11:44 41.68629 -90.34656 21003 ft 432 kts 143°
2026-05-06 11:44 41.66350 -90.32034 21004 ft 434 kts 143°
2026-05-06 11:44 41.64083 -90.29404 21004 ft 430 kts 144°
2026-05-06 11:44 41.61827 -90.26819 21004 ft 428 kts 144°
2026-05-06 11:45 41.59574 -90.24230 21003 ft 428 kts 144°
2026-05-06 11:45 41.57326 -90.21650 21004 ft 427 kts 144°
2026-05-06 11:45 41.55055 -90.19043 21004 ft 439 kts 144°
2026-05-06 11:45 41.52696 -90.16334 21005 ft 458 kts 144°
2026-05-06 11:46 41.50274 -90.13549 20991 ft 453 kts 144°
2026-05-06 11:46 41.47951 -90.10875 21004 ft 436 kts 144°
2026-05-06 11:46 41.45689 -90.08271 21001 ft 428 kts 144°
2026-05-06 11:46 41.43451 -90.05701 21003 ft 424 kts 145°
2026-05-06 11:47 41.41227 -90.03152 21002 ft 423 kts 145°
2026-05-06 11:47 41.39000 -90.00621 21001 ft 422 kts 145°
2026-05-06 11:47 41.36761 -89.98099 21007 ft 421 kts 146°
2026-05-06 11:47 41.34546 -89.95600 21008 ft 416 kts 146°
2026-05-06 11:48 41.32344 -89.93115 20808 ft 415 kts 146°
2026-05-06 11:48 41.30159 -89.90648 20557 ft 413 kts 146°
2026-05-06 11:48 41.27979 -89.88177 20306 ft 412 kts 146°
2026-05-06 11:48 41.25823 -89.85735 20055 ft 406 kts 146°
2026-05-06 11:49 41.23681 -89.83314 19803 ft 404 kts 145°
2026-05-06 11:49 41.21609 -89.80946 19557 ft 401 kts 145°
2026-05-06 11:49 41.19459 -89.78486 19300 ft 399 kts 145°
2026-05-06 11:49 41.17369 -89.76090 19047 ft 397 kts 143°
2026-05-06 11:50 41.15656 -89.73230 18762 ft 401 kts 117°
2026-05-06 11:50 41.14816 -89.69998 18542 ft 400 kts 98°
2026-05-06 11:50 41.14547 -89.66369 18301 ft 393 kts 88°
2026-05-06 11:50 41.14574 -89.62777 18050 ft 387 kts 83°
2026-05-06 11:51 41.14729 -89.59244 17742 ft 383 kts 81°
2026-05-06 11:51 41.14954 -89.55736 17412 ft 382 kts 80°
2026-05-06 11:51 41.15171 -89.52235 16991 ft 382 kts 82°
2026-05-06 11:51 41.15385 -89.48787 16550 ft 386 kts 82°
2026-05-06 11:52 41.15602 -89.45176 16089 ft 384 kts 83°
2026-05-06 11:52 41.15800 -89.41668 15638 ft 381 kts 83°
2026-05-06 11:52 41.16021 -89.38199 15187 ft 375 kts 83°
2026-05-06 11:52 41.16237 -89.34775 14735 ft 371 kts 83°
2026-05-06 11:53 41.16448 -89.31388 14284 ft 368 kts 82°
2026-05-06 11:53 41.16656 -89.28038 13834 ft 364 kts 82°
2026-05-06 11:53 41.16871 -89.24709 13382 ft 362 kts 82°
2026-05-06 11:53 41.17092 -89.21401 12930 ft 359 kts 82°
2026-05-06 11:54 41.17312 -89.18119 12441 ft 358 kts 83°
2026-05-06 11:54 41.17541 -89.14846 11939 ft 356 kts 81°
2026-05-06 11:54 41.17982 -89.11634 11439 ft 353 kts 74°
2026-05-06 11:54 41.18620 -89.08536 10928 ft 344 kts 71°
2026-05-06 11:55 41.19300 -89.05548 10430 ft 334 kts 69°
2026-05-06 11:55 41.19961 -89.02664 10122 ft 319 kts 69°
2026-05-06 11:55 41.20590 -88.99932 9928 ft 302 kts 69°
2026-05-06 11:55 41.21191 -88.97344 9774 ft 287 kts 67°
2026-05-06 11:56 41.21918 -88.94929 9625 ft 279 kts 61°
2026-05-06 11:56 41.22743 -88.92584 9478 ft 285 kts 60°
2026-05-06 11:56 41.23592 -88.90196 9327 ft 288 kts 60°
2026-05-06 11:56 41.24439 -88.87806 9162 ft 285 kts 60°
2026-05-06 11:57 41.25279 -88.85431 8940 ft 284 kts 60°
2026-05-06 11:57 41.26111 -88.83074 8738 ft 281 kts 60°
2026-05-06 11:57 41.26947 -88.80749 8537 ft 278 kts 60°
2026-05-06 11:57 41.27775 -88.78447 8335 ft 276 kts 60°
2026-05-06 11:58 41.28589 -88.76147 8134 ft 276 kts 61°
2026-05-06 11:58 41.29404 -88.73844 7932 ft 275 kts 61°
2026-05-06 11:58 41.30215 -88.71552 7730 ft 275 kts 61°
2026-05-06 11:58 41.31027 -88.69266 7530 ft 272 kts 61°
2026-05-06 11:59 41.31827 -88.67013 7327 ft 269 kts 61°
2026-05-06 11:59 41.32620 -88.64774 7125 ft 268 kts 61°
2026-05-06 11:59 41.33408 -88.62531 6923 ft 268 kts 61°
2026-05-06 11:59 41.34189 -88.60286 6722 ft 268 kts 62°
2026-05-06 12:00 41.34954 -88.58034 6520 ft 268 kts 62°
2026-05-06 12:00 41.35736 -88.55786 6318 ft 269 kts 61°
2026-05-06 12:00 41.36523 -88.53528 6117 ft 269 kts 62°
2026-05-06 12:00 41.37399 -88.51369 6041 ft 263 kts 54°
2026-05-06 12:01 41.38459 -88.49376 6042 ft 266 kts 50°
2026-05-06 12:01 41.39556 -88.47469 6036 ft 266 kts 49°
2026-05-06 12:01 41.40697 -88.45541 6034 ft 265 kts 48°
2026-05-06 12:01 41.41866 -88.43582 6030 ft 266 kts 48°
2026-05-06 12:02 41.43017 -88.41657 6028 ft 267 kts 48°
2026-05-06 12:02 41.44178 -88.39735 6024 ft 267 kts 48°
2026-05-06 12:02 41.45342 -88.37806 6023 ft 268 kts 48°
2026-05-06 12:02 41.46515 -88.35873 6021 ft 269 kts 48°
2026-05-06 12:03 41.47694 -88.33928 6020 ft 272 kts 48°
2026-05-06 12:03 41.48879 -88.31973 6017 ft 272 kts 48°
2026-05-06 12:03 41.50046 -88.29996 6008 ft 273 kts 52°
2026-05-06 12:03 41.50891 -88.27779 6015 ft 264 kts 65°
2026-05-06 12:04 41.51484 -88.25538 6011 ft 250 kts 69°
2026-05-06 12:04 41.52000 -88.23389 6015 ft 240 kts 70°
2026-05-06 12:04 41.52498 -88.21297 6017 ft 235 kts 70°
2026-05-06 12:04 41.52992 -88.19226 6019 ft 235 kts 70°
2026-05-06 12:05 41.53486 -88.17142 6020 ft 236 kts 70°
2026-05-06 12:05 41.53973 -88.15058 6019 ft 236 kts 70°
2026-05-06 12:05 41.54463 -88.12980 6016 ft 235 kts 70°
2026-05-06 12:05 41.54954 -88.10896 6011 ft 237 kts 70°
2026-05-06 12:06 41.55446 -88.08792 6004 ft 238 kts 70°
2026-05-06 12:06 41.55936 -88.06690 5999 ft 238 kts 71°
2026-05-06 12:06 41.56431 -88.04588 5997 ft 238 kts 70°
2026-05-06 12:06 41.57025 -88.02578 5983 ft 237 kts 59°
2026-05-06 12:07 41.57983 -88.00934 6008 ft 234 kts 44°
2026-05-06 12:07 41.59136 -87.99453 5981 ft 225 kts 39°
2026-05-06 12:07 41.60266 -87.98079 5853 ft 218 kts 39°
2026-05-06 12:07 41.61380 -87.96722 5584 ft 217 kts 40°
2026-05-06 12:08 41.62491 -87.95353 5272 ft 219 kts 40°
2026-05-06 12:08 41.63610 -87.93961 4944 ft 221 kts 41°
2026-05-06 12:08 41.64739 -87.92555 4611 ft 224 kts 41°
2026-05-06 12:08 41.65874 -87.91134 4287 ft 224 kts 41°
2026-05-06 12:09 41.67003 -87.89723 3952 ft 222 kts 44°
2026-05-06 12:09 41.68117 -87.88316 3611 ft 221 kts 43°
2026-05-06 12:09 41.69221 -87.86915 3285 ft 213 kts 42°
2026-05-06 12:09 41.70220 -87.85660 2968 ft 185 kts 41°
2026-05-06 12:10 41.71093 -87.84557 2673 ft 162 kts 43°
2026-05-06 12:10 41.71886 -87.83566 2444 ft 150 kts 43°
2026-05-06 12:10 41.72592 -87.82670 2282 ft 133 kts 43°
2026-05-06 12:10 41.73230 -87.81868 2193 ft 123 kts 43°
2026-05-06 12:11 41.73873 -87.81052 1893 ft 129 kts 44°
2026-05-06 12:11 41.74508 -87.80202 1593 ft 130 kts 43°
2026-05-06 12:11 41.75156 -87.79416 1394 ft 123 kts 42°
2026-05-06 12:11 41.75796 -87.78632 1261 ft 126 kts 43°
2026-05-06 12:12 41.76435 -87.77815 1106 ft 128 kts 44°
2026-05-06 12:12 41.77088 -87.77005 930 ft 127 kts 43°
2026-05-06 12:12 41.77724 -87.76184 735 ft 126 kts 44°
2026-05-06 12:12 41.78342 -87.75395 628 ft 110 kts 43°
2026-05-06 12:13 41.78707 -87.74935 628 ft 32 kts 43°
2026-05-06 12:13 41.78786 -87.74798 628 ft 8 kts 127°
2026-05-06 12:13 41.78756 -87.74790 628 ft 0 kts 176°